AMC-15

Last updated on Sun Apr 12 2026 00:02:51 GMT+0000 (Coordinated Universal Time)

1 28446U 04041A 26101.49989064 -.00000087 00000+0 00000+0 0 9996 2 28446 0.0583 61.9305 0002264 329.9285 242.7825 1.00271338 78637
UTC large
Height (km)
Speed (km/s)
/
Latitude / Longitude
Inclination (degrees)
Orbital Period (minutes)
Azimuth
Elevation
Range (km)
Doppler Factor

Next 0 passes for location: London (51.5072 / 0.1276)

Sorry there are no passes over London.
AMC-15